Location: Vihti�l�
(61.3833°N, 23.0667°E)
Time: 04:31:38
(UTC+00:00)

Cosmos 1356 - Pass Details

Date: 29 November 2020
Orbit: 441 x 444 km, 81.1° (Epoch: 19 January)

Event Time Altitude Azimuth Distance (km) Brightness Sun altitude
Rises 06:00:15 0° 215° (SW) 2,432 7.1 -7.3°
Reaches altitude 10° 06:02:22 10° 222° (SW) 1,566 6.1 -7.1°
Maximum altitude 06:05:38 42° 295° (WNW) 647 3.7 -6.8°
Drops below altitude 10° 06:08:57 10° 8° (N) 1,579 5.9 -6.4°
Sets 06:11:06 0° 16° (NNE) 2,455 6.9 -6.2°
